Location: Maignaut
(43.8886°N, 0.4051°E)
Time: 19:14:31
(UTC+00:00)

Cosmos 2228 - Pass Details

Date: 17 January 2021
Orbit: 589 x 617 km, 82.5° (Epoch: 28 February)

Event Time Altitude Azimuth Distance (km) Brightness Sun altitude
Rises 18:03:03 0° 351° (N) 2,835 6.4 -13.1°
Reaches altitude 10° 18:05:16 10° 352° (N) 1,931 5.5 -13.5°
Maximum altitude 18:09:32 88° 85° (E) 600 2.9 -14.3°
Drops below altitude 10° 18:13:48 10° 172° (S) 1,927 5.7 -15.0°
Sets 18:16:00 0° 173° (S) 2,829 6.5 -15.4°
